Change the Weather History Date:

Thursday, January 24, 2013

  Actual Average (KLJF) Record (KLJF)
Temperature  
Mean Temperature 1 °F -  
Max Temperature 12 °F 22 °F 60 °F (1981)
Min Temperature -10 °F 4 °F -27 °F (1982)
Degree Days  
Heating Degree Days 64    
Moisture  
Dew Point -11 °F    
Average Humidity 61    
Maximum Humidity 65    
Minimum Humidity 55    
Precipitation  
Precipitation 0.00 in - - ()
Sea Level Pressure  
Sea Level Pressure 30.41 in    
Wind  
Wind Speed 7 mph (ESE)    
Max Wind Speed 16 mph    
Max Gust Speed 21 mph    
Visibility 10 miles    
Events Snow    
Averages and records for this station are not official NWS values.
T = Trace of Precipitation, MM = Missing Value Source: NWS Daily Summary

Daily Weather History Graph

Daily Weather History Graph

Search for Another Location

Airport or City:

Trip Planner

Search our weather history database for the weather conditions in past years. The results will help you decide how hot, cold, wet, or windy it might be!

Date:

Astronomy

Jan. 24, 2013 Rise Set
Actual Time 7:47 AM CST 5:14 PM CST
Civil Twilight 7:15 AM CST 5:47 PM CST
Nautical Twilight 6:39 AM CST 6:23 PM CST
Astronomical Twilight 6:04 AM CST 6:58 PM CST
Moon 3:16 PM CST (1/24) 5:47 AM CST (1/24)
Length of Visible Light 10h 31m
Length of Day
9h 27m
Waxing Gibbous, 94% of the Moon is Illuminated
Jan 24
Waxing Gibbous
Jan 26
Full
Feb 3
Last Quarter
Feb 10
New
Feb 17
First Quarter

Hourly Weather History & Observations

Time (CST) Temp. Windchill Dew Point Humidity Pressure Visibility Wind Dir Wind Speed Gust Speed Precip Events Conditions
12:13 AM -9.8 °F -23.1 °F -18.8 °F 65% 30.58 in 10.0 mi NNE 5.8 mph - N/A   Clear
12:33 AM -9.9 °F -19.2 °F -19.1 °F 64% 30.59 in 10.0 mi NNE 3.5 mph - N/A   Clear
12:53 AM -10.1 °F -23.6 °F -18.9 °F 65% 30.58 in 10.0 mi NNE 5.8 mph - N/A   Clear
1:13 AM -9.6 °F -22.9 °F -19.3 °F 62% 30.58 in 10.0 mi NE 5.8 mph - N/A   Clear
1:33 AM -9.6 °F -18.8 °F -19.5 °F 62% 30.59 in 10.0 mi NE 3.5 mph - N/A   Clear
1:53 AM -9.4 °F - -19.3 °F 62% 30.60 in 10.0 mi Calm Calm - N/A   Clear
2:13 AM -9.4 °F -20.9 °F -19.8 °F 60% 30.60 in 10.0 mi NE 4.6 mph - N/A   Clear
2:33 AM -9.2 °F - -19.3 °F 61% 30.61 in 10.0 mi Calm Calm - N/A   Clear
2:53 AM -8.9 °F -18.0 °F -19.5 °F 60% 30.61 in 10.0 mi NE 3.5 mph - N/A   Clear
3:13 AM -8.7 °F -21.9 °F -19.5 °F 59% 30.61 in 10.0 mi ENE 5.8 mph - N/A   Clear
3:33 AM -8.9 °F -20.2 °F -19.7 °F 59% 30.61 in 10.0 mi ENE 4.6 mph - N/A   Clear
3:53 AM -8.9 °F -20.2 °F -19.7 °F 59% 30.60 in 10.0 mi ENE 4.6 mph - N/A   Clear
4:13 AM -8.5 °F -19.8 °F -19.3 °F 59% 30.60 in 10.0 mi East 4.6 mph - N/A   Clear
4:33 AM -8.5 °F -23.2 °F -19.1 °F 60% 30.58 in 10.0 mi East 6.9 mph - N/A   Clear
4:53 AM -8.5 °F -24.5 °F -18.8 °F 61% 30.58 in 10.0 mi East 8.1 mph - N/A   Clear
5:13 AM -8.5 °F -23.2 °F -19.1 °F 60% 30.58 in 10.0 mi East 6.9 mph - N/A   Clear
5:33 AM -8.1 °F -22.7 °F -18.6 °F 60% 30.59 in 10.0 mi East 6.9 mph - N/A   Mostly Cloudy
5:53 AM -8.1 °F -19.4 °F -18.4 °F 61% 30.60 in 10.0 mi ESE 4.6 mph - N/A   Mostly Cloudy
6:13 AM -8.0 °F -19.2 °F -18.4 °F 60% 30.61 in 10.0 mi East 4.6 mph - N/A   Mostly Cloudy
6:33 AM -7.6 °F -20.6 °F -17.1 °F 63% 30.60 in 10.0 mi East 5.8 mph - N/A   Overcast
6:53 AM -7.6 °F -22.1 °F -17.3 °F 63% 30.60 in 10.0 mi East 6.9 mph - N/A   Overcast
7:13 AM -7.6 °F -18.8 °F -17.3 °F 63% 30.60 in 10.0 mi ESE 4.6 mph - N/A   Overcast
7:33 AM -7.4 °F -20.4 °F -17.1 °F 63% 30.59 in 10.0 mi ESE 5.8 mph - N/A   Overcast
7:53 AM -7.1 °F -19.9 °F -16.6 °F 63% 30.58 in 10.0 mi ESE 5.8 mph - N/A   Overcast
8:13 AM -6.9 °F -17.9 °F -16.2 °F 64% 30.57 in 10.0 mi ESE 4.6 mph - N/A   Overcast
8:33 AM -6.7 °F -23.5 °F -15.7 °F 65% 30.55 in 10.0 mi ESE 9.2 mph - N/A   Overcast
8:52 AM -6.3 °F -20.6 °F -15.9 °F 63% 30.55 in 10.0 mi ESE 6.9 mph - N/A   Scattered Clouds
9:13 AM -6.2 °F -20.4 °F -15.5 °F 64% 30.55 in 10.0 mi ESE 6.9 mph - N/A   Clear
9:33 AM -5.8 °F -21.2 °F -15.3 °F 63% 30.55 in 10.0 mi SE 8.1 mph - N/A   Clear
9:53 AM -5.3 °F -21.7 °F -14.8 °F 63% 30.53 in 10.0 mi ESE 9.2 mph - N/A   Scattered Clouds
10:13 AM -4.9 °F -22.3 °F -14.4 °F 64% 30.53 in 10.0 mi ESE 10.4 mph - N/A   Clear
10:33 AM -4.2 °F -19.3 °F -13.9 °F 63% 30.53 in 10.0 mi SE 8.1 mph - N/A   Clear
10:53 AM -3.8 °F -21.0 °F -13.5 °F 63% 30.51 in 10.0 mi SE 10.4 mph - N/A   Clear
11:13 AM -3.1 °F -17.9 °F -13.2 °F 62% 30.52 in 10.0 mi SE 8.1 mph - N/A   Clear
11:33 AM -2.6 °F -19.4 °F -12.8 °F 62% 30.51 in 10.0 mi ESE 10.4 mph - N/A   Scattered Clouds
11:53 AM -1.8 °F -17.5 °F -11.9 °F 62% 30.49 in 10.0 mi ESE 9.2 mph - N/A   Overcast
12:14 PM -1.3 °F -15.7 °F -11.2 °F 63% 30.47 in 10.0 mi SE 8.1 mph - N/A   Mostly Cloudy
12:33 PM -0.6 °F -16.9 °F -10.7 °F 62% 30.46 in 10.0 mi ESE 10.4 mph - N/A   Mostly Cloudy
12:53 PM 0.3 °F -13.8 °F -10.3 °F 61% 30.45 in 10.0 mi SE 8.1 mph - N/A   Mostly Cloudy
1:13 PM 0.7 °F -15.4 °F -9.6 °F 62% 30.44 in 10.0 mi SE 10.4 mph 17.3 mph N/A   Scattered Clouds
1:33 PM 1.4 °F -17.6 °F -8.9 °F 62% 30.41 in 10.0 mi SE 15.0 mph - N/A   Mostly Cloudy
1:53 PM 1.9 °F -15.5 °F -8.1 °F 63% 30.40 in 10.0 mi SE 12.7 mph - N/A   Overcast
2:13 PM 2.3 °F -15.7 °F -7.8 °F 63% 30.37 in 10.0 mi SE 13.8 mph 19.6 mph N/A   Overcast
2:33 PM 2.7 °F -14.5 °F -6.9 °F 64% 30.36 in 10.0 mi SE 12.7 mph 20.7 mph N/A   Overcast
2:53 PM 3.2 °F -14.6 °F -6.3 °F 65% 30.36 in 10.0 mi SE 13.8 mph - N/A   Overcast
3:13 PM 3.7 °F -12.4 °F -6.0 °F 64% 30.35 in 10.0 mi SE 11.5 mph - N/A   Mostly Cloudy
3:33 PM 4.1 °F -12.0 °F -5.8 °F 64% 30.33 in 10.0 mi SE 11.5 mph 20.7 mph N/A   Scattered Clouds
3:53 PM 4.3 °F -14.5 °F -5.3 °F 65% 30.30 in 10.0 mi ESE 16.1 mph - N/A   Clear
4:13 PM 4.8 °F -11.8 °F -5.1 °F 64% 30.29 in 10.0 mi ESE 12.7 mph - N/A   Clear
4:33 PM 5.4 °F -10.4 °F -4.7 °F 63% 30.28 in 10.0 mi SE 11.5 mph - N/A   Scattered Clouds
4:53 PM 5.7 °F -9.9 °F -4.2 °F 64% 30.28 in 10.0 mi ESE 11.5 mph - N/A   Scattered Clouds
5:13 PM 6.3 °F -7.5 °F -3.8 °F 63% 30.28 in 10.0 mi ESE 9.2 mph - N/A   Scattered Clouds
5:33 PM 6.6 °F -9.5 °F -3.1 °F 64% 30.25 in 10.0 mi ESE 12.7 mph - N/A   Mostly Cloudy
5:53 PM 6.8 °F -7.8 °F -2.9 °F 64% 30.23 in 10.0 mi SE 10.4 mph 16.1 mph N/A   Overcast
6:13 PM 7.7 °F -8.2 °F -2.4 °F 63% 30.21 in 10.0 mi SE 12.7 mph - N/A   Overcast
6:33 PM 8.2 °F -8.2 °F -2.2 °F 63% 30.19 in 10.0 mi SE 13.8 mph 20.7 mph N/A   Overcast
6:53 PM 8.6 °F -7.0 °F -2.9 °F 60% 30.18 in 10.0 mi SE 12.7 mph 20.7 mph N/A   Overcast
7:13 PM 9.1 °F -5.6 °F -2.6 °F 59% 30.18 in 10.0 mi SE 11.5 mph 16.1 mph N/A   Overcast
7:33 PM 9.5 °F -5.2 °F -3.1 °F 57% 30.16 in 10.0 mi SE 11.5 mph 17.3 mph N/A   Mostly Cloudy
7:53 PM 9.5 °F -5.2 °F -3.6 °F 55% 30.17 in 10.0 mi SSE 11.5 mph 17.3 mph N/A   Mostly Cloudy
8:13 PM 9.7 °F -4.2 °F -3.3 °F 56% 30.14 in 10.0 mi SSE 10.4 mph - N/A   Mostly Cloudy
8:33 PM 9.9 °F -6.1 °F -3.5 °F 55% 30.11 in 10.0 mi SSE 13.8 mph 17.3 mph N/A   Mostly Cloudy
8:53 PM 10.2 °F -3.5 °F -3.3 °F 55% 30.16 in 10.0 mi SSE 10.4 mph 18.4 mph N/A   Mostly Cloudy
9:13 PM 10.8 °F -2.8 °F -2.6 °F 55% 30.16 in 10.0 mi SSE 10.4 mph - N/A   Overcast
9:33 PM 10.9 °F -2.6 °F -2.2 °F 56% 30.16 in 10.0 mi SSE 10.4 mph 16.1 mph N/A   Overcast
9:53 PM 11.1 °F -3.9 °F -1.8 °F 56% 30.14 in 10.0 mi SSE 12.7 mph 19.6 mph N/A   Overcast
10:13 PM 11.3 °F -2.2 °F -1.5 °F 57% 30.15 in 10.0 mi South 10.4 mph - N/A   Overcast
10:33 PM 11.3 °F -2.9 °F -0.6 °F 59% 30.13 in 10.0 mi South 11.5 mph - N/A   Overcast
10:53 PM 11.7 °F -1.7 °F -0.0 °F 59% 30.11 in 10.0 mi South 10.4 mph - N/A   Overcast
11:13 PM 11.8 °F -1.5 °F 0.5 °F 60% 30.09 in 10.0 mi SSE 10.4 mph - N/A   Overcast
11:33 PM 12.0 °F -0.4 °F 1.0 °F 61% 30.10 in 10.0 mi South 9.2 mph 16.1 mph N/A Snow Light Snow
11:53 PM 12.0 °F -1.3 °F 1.4 °F 62% 30.08 in 10.0 mi South 10.4 mph 19.6 mph N/A Snow Light Snow